GFSSW_850_spd_000.txt.gz
Wind_Speed
8 9 9 9 10 10 11 11 11 10 10 10 10 9 9 10 9 10 9 7 5 4 3 2 2 1 3 5 7 3 2 5 8 0 1 6 4 7 7 8 9 11 11 9 10
10 10 10 10 10 10 10 11 11 12 11 11 10 10 9 10 13 17 11 9 8 6 4 2 2 4 5 4 4 4 3 5 3 6 4 2 10 9 5 10 13 16 18 20 18
13 13 12 12 11 11 11 11 11 12 12 12 13 12 10 10 12 9 10 15 11 8 6 5 6 7 10 8 7 5 5 4 4 7 7 7 10 11 9 8 20 21 26 27 26
15 15 15 14 14 14 14 14 14 13 14 14 13 14 11 7 5 4 8 14 14 10 7 4 3 4 6 7 12 4 16 19 6 5 4 4 6 9 20 26 6 9 16 24 30
17 17 17 17 17 16 16 16 16 16 16 16 15 14 12 7 13 17 14 12 15 13 9 5 8 12 7 8 2 9 12 17 14 12 13 14 18 10 22 24 27 25 26 22 26
19 19 18 18 18 18 18 18 18 17 17 16 16 15 12 10 14 15 14 15 17 15 12 10 7 8 9 11 8 8 13 19 16 18 13 8 10 13 18 16 25 30 29 31 32
22 21 21 20 20 20 19 19 20 20 19 18 18 15 14 21 20 19 16 17 18 17 14 14 14 8 7 8 7 7 8 10 17 19 7 5 10 14 37 21 19 21 27 35 36
24 25 25 24 23 23 22 21 22 22 21 20 18 13 12 17 20 20 18 17 17 18 18 18 12 11 6 6 6 4 5 5 5 12 9 12 12 10 17 24 31 30 26 28 33
23 24 25 27 27 29 27 24 25 25 23 21 15 9 9 13 15 17 16 15 15 16 15 13 9 6 4 3 6 9 6 9 10 13 7 9 9 10 9 7 16 22 26 30 34
23 24 24 24 25 28 29 27 26 26 23 13 12 5 18 12 11 11 13 16 10 8 6 8 7 4 4 6 7 7 6 10 13 7 7 8 17 13 27 22 28 34 35 36 37
20 22 24 24 24 25 25 21 12 7 11 12 7 9 6 10 8 10 11 14 11 7 7 11 5 11 15 16 16 15 16 16 22 11 10 15 19 16 19 27 24 31 36 33 35
21 20 20 21 20 19 18 6 8 8 13 21 25 25 25 24 11 17 15 14 11 9 9 4 13 21 9 12 7 9 13 20 18 11 7 9 14 13 10 20 34 31 36 34 23
19 18 18 18 18 14 13 13 11 12 8 11 27 21 25 28 17 24 25 16 9 8 13 19 10 14 7 7 9 12 10 15 15 9 6 6 7 12 9 25 30 35 42 31 25
18 19 20 18 9 13 11 9 6 5 4 7 8 9 15 12 6 14 21 11 7 13 13 16 20 20 15 18 10 21 9 9 11 6 6 4 15 8 6 12 11 27 38 25 21
20 17 20 20 17 11 11 8 3 1 7 1 3 2 6 6 1 1 14 8 9 5 5 8 4 6 9 11 9 6 2 2 4 6 6 5 9 5 9 9 11 13 34 30 20
20 20 21 20 18 14 13 4 3 3 9 3 5 4 3 5 1 2 2 5 2 3 7 14 4 3 4 3 2 3 1 3 3 2 9 11 12 3 6 8 6 9 30 29 18
26 23 25 22 13 13 11 4 3 8 3 6 6 6 5 6 7 8 6 6 6 4 8 6 16 2 4 4 2 4 3 3 4 1 15 10 10 16 5 8 11 13 25 22 23
17 26 33 29 27 18 5 2 10 8 18 2 4 7 7 9 8 8 5 5 13 6 3 3 9 14 8 12 8 9 9 6 7 10 21 2 9 9 11 12 20 31 33 16 20
24 21 27 31 30 25 13 4 10 6 8 12 15 6 7 7 6 8 9 9 8 19 11 7 12 3 6 3 9 6 6 4 1 2 4 12 14 11 11 11 10 13 15 15 16
21 19 27 22 21 28 4 11 12 9 10 7 14 8 15 13 10 9 9 5 6 13 13 5 11 8 4 3 3 4 1 2 2 2 7 18 13 16 13 18 9 6 8 13 15
15 8 12 13 22 14 5 11 14 21 24 12 15 17 19 16 15 11 10 10 5 5 15 3 5 8 6 8 11 2 4 5 1 5 7 10 15 4 6 5 8 8 7 7 10
12 4 10 15 9 7 9 8 18 22 23 6 2 9 14 10 15 25 25 19 27 2 9 8 2 5 15 8 2 6 11 12 10 16 4 12 23 5 5 9 10 8 10 16 20
7 10 11 24 8 8 5 19 22 19 17 6 11 12 15 16 9 12 15 16 14 6 5 10 3 2 8 14 2 5 6 11 11 11 19 18 22 10 21 18 13 8 8 15 20
6 4 7 22 17 9 14 11 17 24 22 27 19 17 14 17 18 10 12 13 26 10 16 3 3 10 14 16 15 12 11 11 13 11 20 21 26 31 30 27 25 31 31 29 31
9 7 9 4 8 16 14 6 18 20 27 23 8 26 23 16 20 22 21 27 19 21 4 6 11 19 24 25 25 23 24 25 23 19 21 25 29 28 31 24 24 36 27 30 31
6 4 5 7 18 14 16 18 28 27 23 21 27 23 20 24 26 28 20 19 20 3 12 10 10 13 24 31 32 29 29 25 32 30 31 34 30 34 31 39 37 41 43 33 34
11 12 5 11 11 8 13 15 7 13 21 31 28 26 25 26 30 39 40 36 22 10 7 7 7 8 19 23 27 24 33 38 34 31 30 29 38 38 34 32 33 46 40 40 35

GFSSW_850_spd_003.txt.gz
Wind_Speed
8 9 9 9 9 9 9 9 10 10 11 11 11 11 10 9 10 12 11 6 3 4 3 1 1 2 3 2 5 2 3 3 5 3 2 6 4 6 6 8 9 14 14 12 10
8 8 8 9 9 9 9 10 11 11 11 11 12 12 11 12 12 15 11 10 7 6 5 3 1 1 2 3 4 4 3 6 4 3 4 3 7 8 6 9 11 18 22 24 22
11 10 10 9 9 9 9 10 10 11 12 12 12 13 13 12 14 5 4 13 11 10 8 5 4 5 4 6 7 5 6 5 6 8 6 4 4 8 9 7 21 25 31 30 29
14 14 13 12 12 11 11 11 11 11 12 13 12 12 13 12 5 2 6 6 15 14 10 7 5 4 4 4 12 5 13 19 16 16 8 4 7 7 18 31 13 12 20 29 33
17 17 17 16 15 15 14 13 13 13 13 13 13 13 13 8 16 17 15 11 12 17 14 10 8 7 4 5 6 6 6 14 18 16 17 15 17 12 27 30 27 30 30 29 28
20 20 19 18 18 18 17 16 16 15 15 15 15 15 13 9 14 11 11 12 14 18 17 15 8 7 10 7 4 5 10 14 21 29 19 10 8 8 32 27 24 32 36 34 36
19 20 22 22 22 21 20 19 19 19 18 17 16 15 17 25 22 20 18 16 15 18 20 16 15 12 3 5 7 6 8 9 22 24 7 11 10 14 41 30 25 25 29 33 40
18 18 19 20 22 24 25 24 23 23 22 20 18 14 14 18 19 21 22 20 17 19 20 18 15 14 11 6 5 3 2 5 7 8 6 12 17 12 13 21 29 35 36 32 34
18 19 19 20 21 23 24 23 24 25 24 22 16 11 10 15 18 18 19 18 15 17 18 17 12 9 4 4 5 3 6 8 12 10 6 5 12 11 20 23 32 34 32 36 40
19 19 19 20 21 21 22 22 22 22 21 15 12 5 18 16 13 12 13 15 13 11 9 10 10 3 1 5 9 7 6 7 9 4 3 6 19 17 27 18 21 26 29 37 42
19 20 19 19 20 21 21 17 8 5 6 9 6 9 7 15 12 13 14 17 13 9 7 10 5 10 24 14 8 5 6 9 18 10 10 17 18 21 27 23 24 37 43 48 52
17 19 19 17 16 15 14 8 6 7 11 19 24 28 28 26 12 19 16 14 11 9 6 3 13 20 5 10 10 10 14 15 15 12 10 14 21 16 9 16 28 30 40 51 40
17 18 19 17 14 14 13 8 9 10 6 11 30 26 35 34 25 26 25 14 7 6 10 20 11 18 12 9 8 19 14 19 19 10 6 9 11 12 11 16 30 39 47 50 42
19 17 18 16 7 16 10 13 11 6 3 6 5 5 9 9 5 12 19 14 6 12 8 11 13 11 6 7 12 22 10 14 8 4 13 4 16 9 7 12 10 26 44 36 40
20 17 17 15 13 13 13 12 7 3 7 5 3 3 6 8 1 0 18 9 5 5 6 10 3 8 14 26 9 20 4 5 2 4 5 5 6 3 8 8 12 16 37 44 37
23 19 19 18 15 12 11 11 2 5 8 5 3 2 2 2 2 2 1 3 2 2 6 11 1 4 7 2 6 2 1 1 2 2 12 8 9 5 7 9 6 11 32 37 33
23 20 21 19 16 14 9 4 3 5 5 4 4 3 2 4 3 5 4 3 5 1 5 3 10 2 5 3 2 3 5 4 4 1 12 11 10 21 6 8 11 14 29 31 31
23 22 17 15 23 20 8 4 6 6 8 3 6 1 6 7 7 7 4 4 7 2 2 4 15 12 9 16 12 10 10 7 7 9 18 3 9 8 10 14 27 35 38 33 25
19 21 24 23 17 20 10 2 8 6 4 5 9 11 4 5 7 6 7 6 8 18 11 6 14 1 5 2 9 5 6 11 2 3 2 10 13 10 8 11 11 20 17 27 24
15 17 23 19 15 23 4 13 8 8 2 2 8 6 12 8 5 4 3 3 6 14 19 5 12 8 2 1 3 6 1 1 1 3 7 15 6 14 14 20 16 11 10 17 21
15 9 9 6 18 12 8 9 6 16 13 6 14 18 16 16 9 6 7 15 3 4 1 7 6 17 4 6 9 1 4 5 2 4 12 14 15 6 2 6 10 8 11 14 14
10 4 12 20 7 6 11 5 10 13 15 10 4 8 12 9 12 11 13 15 19 4 13 2 5 4 8 8 5 5 6 6 9 10 3 6 16 10 5 4 10 6 10 12 7
8 11 11 25 7 9 4 7 12 14 14 5 8 8 11 13 9 11 13 17 26 12 7 3 2 4 12 9 3 6 8 7 6 2 9 12 15 26 22 19 14 5 18 14 33
4 3 9 20 19 11 17 19 18 22 19 23 17 17 14 20 18 13 17 14 25 20 23 17 11 9 16 18 7 5 5 8 10 8 20 19 29 26 32 31 27 29 40 44 42
8 5 7 5 13 14 15 14 20 22 18 22 10 21 24 23 27 30 27 28 19 19 10 13 13 19 27 29 28 25 25 28 26 25 20 29 28 25 30 31 24 35 40 33 31
4 3 7 8 12 8 14 18 21 21 13 22 22 24 21 25 28 28 24 21 22 6 23 15 23 22 24 28 31 30 34 35 35 34 28 32 31 33 33 46 36 48 51 34 34
7 19 9 9 3 4 11 14 11 5 10 8 9 8 7 13 20 26 29 28 21 12 7 10 7 10 26 24 25 24 31 37 30 26 24 29 36 36 34 31 33 43 52 38 39

GFSSW_850_spd_006.txt.gz
Wind_Speed
6 6 7 7 7 7 7 8 8 8 8 9 10 10 10 10 11 12 14 7 4 5 4 3 3 4 5 4 5 3 3 3 5 3 5 2 3 5 5 7 11 13 19 13 8
8 7 7 7 7 7 8 7 8 8 8 8 9 10 11 13 14 17 13 11 8 7 6 5 5 5 3 3 5 4 3 8 6 2 4 4 8 8 5 10 11 19 24 25 21
10 10 10 10 9 9 9 9 9 10 10 10 10 11 12 14 18 3 1 7 14 9 8 6 6 5 4 5 7 6 6 6 9 11 10 5 6 9 7 9 19 24 28 29 29
13 13 13 13 12 12 11 12 12 11 11 12 11 11 12 12 5 2 11 8 9 14 12 9 8 5 4 5 10 4 15 17 14 21 6 5 7 7 19 36 28 24 20 23 30
16 16 15 15 15 15 14 13 13 13 13 13 12 13 13 9 17 19 13 9 8 16 17 15 14 9 5 5 4 7 7 17 23 21 19 16 19 13 27 41 31 28 29 30 29
16 16 16 17 17 17 18 17 16 16 16 15 15 14 14 10 14 11 10 12 12 15 20 20 12 15 8 7 7 3 10 15 18 28 24 9 14 8 40 36 29 25 36 39 39
15 15 15 16 17 18 19 19 20 20 20 18 17 17 19 28 21 22 21 20 17 18 21 23 21 13 3 4 8 5 8 8 15 16 8 9 8 11 40 33 35 31 31 30 34
13 14 15 16 17 18 18 18 20 21 22 21 19 17 16 21 22 22 23 24 20 20 21 20 18 14 13 8 4 3 1 5 2 8 5 12 14 13 25 27 32 32 33 34 36
14 15 15 17 17 18 19 18 20 20 19 18 16 13 11 18 19 21 22 22 18 19 18 16 12 8 5 3 4 2 6 8 12 14 5 7 11 11 12 21 27 33 36 39 41
13 15 15 15 16 18 18 18 17 19 17 10 12 5 18 15 15 15 17 19 13 11 9 9 8 3 2 4 8 8 6 6 8 4 5 7 16 15 30 17 27 35 37 41 42
14 15 14 14 16 17 17 11 6 4 6 8 8 9 7 8 14 14 15 15 11 7 6 6 4 10 22 14 13 3 6 8 7 10 6 10 17 18 32 22 23 35 41 46 54
15 15 15 14 15 14 15 7 7 6 12 17 26 28 27 23 11 18 17 12 10 7 5 2 9 18 11 5 10 12 18 20 16 15 6 16 23 19 12 23 34 32 41 47 50
17 17 16 14 11 14 12 14 11 8 5 13 24 17 27 26 17 14 17 10 5 6 9 19 10 14 10 8 6 15 15 18 19 6 5 9 20 12 14 24 36 38 46 49 56
18 17 17 14 7 11 8 15 11 8 2 7 4 4 6 8 6 15 18 12 4 11 8 10 12 11 10 8 14 24 12 14 9 4 12 4 24 7 8 12 12 24 38 43 51
20 19 18 17 13 8 8 11 6 4 6 5 2 2 5 6 3 3 12 2 3 3 5 9 5 6 9 21 11 21 4 6 3 4 5 4 5 4 8 7 12 15 34 42 45
23 20 19 20 16 13 8 7 3 4 8 5 0 2 1 2 2 2 3 6 1 3 5 10 2 5 9 5 9 1 3 4 4 1 11 10 9 7 6 7 6 11 32 34 33
20 19 19 18 16 9 7 5 2 6 3 4 1 3 3 3 2 4 4 6 6 3 4 3 6 3 6 5 3 4 5 3 3 1 12 9 6 20 7 9 11 14 30 36 39
18 19 21 18 16 10 6 1 11 3 6 3 2 5 6 5 5 3 4 3 6 2 2 2 17 9 6 10 9 11 10 7 7 10 20 4 10 11 11 16 26 27 34 40 41
17 15 21 24 17 14 10 7 8 7 6 4 6 5 5 3 6 4 7 6 7 14 9 5 18 3 4 4 8 2 6 11 2 2 1 9 14 10 2 8 6 16 28 35 33
15 17 22 16 18 18 5 21 7 5 3 3 7 6 6 4 1 2 4 4 5 11 5 3 7 4 1 2 3 7 3 1 2 5 8 11 6 15 9 5 8 15 22 40 26
14 8 10 11 20 14 9 8 10 12 9 5 7 11 10 7 9 10 8 3 4 3 5 4 5 11 2 7 10 2 5 5 3 4 12 16 14 6 8 1 6 12 27 32 21
10 4 9 21 8 6 12 7 6 6 15 12 7 13 15 14 14 11 7 12 9 4 5 6 5 6 15 12 5 7 16 17 10 11 5 5 11 30 29 18 20 22 29 27 15
6 12 11 24 7 12 6 8 17 16 15 7 11 10 12 16 13 16 16 22 26 13 6 4 4 11 7 12 14 8 12 10 8 8 21 17 14 26 25 21 27 21 32 33 42
3 3 10 21 21 12 15 16 14 17 16 16 13 19 18 19 20 16 21 6 13 23 29 13 15 19 20 19 4 6 8 9 16 15 19 19 25 25 27 29 30 24 31 29 38
7 5 5 4 13 13 17 11 19 18 12 17 10 19 21 18 21 24 16 15 18 25 17 10 20 18 28 28 25 29 29 29 27 26 25 30 29 22 25 28 23 41 42 33 30
3 4 6 7 10 6 14 19 19 20 16 19 14 15 15 13 12 17 10 5 4 6 7 6 14 22 31 29 26 27 33 32 33 33 34 29 30 28 29 42 37 45 44 42 31
7 14 6 7 4 1 8 7 7 3 3 7 5 1 7 7 12 17 16 17 16 11 17 9 9 14 19 8 21 19 25 36 35 29 24 27 29 17 17 20 24 30 28 29 32

GFSSW_850_spd_009.txt.gz
Wind_Speed
7 7 8 8 8 8 8 8 8 8 8 9 9 10 10 10 11 13 15 10 6 8 6 5 5 6 5 3 4 2 3 3 5 5 4 1 3 4 6 9 8 10 19 14 11
8 8 9 9 9 9 9 9 9 10 10 10 10 12 13 14 16 20 13 11 10 8 7 6 7 6 3 3 5 4 3 8 6 4 3 4 6 14 6 10 10 18 23 24 24
10 10 10 10 11 11 12 11 11 11 11 11 12 13 14 15 18 2 7 3 12 10 9 8 7 6 4 4 7 6 6 5 10 14 11 5 7 13 6 8 22 20 27 26 29
13 13 13 14 13 13 13 14 14 14 13 13 13 13 15 14 5 1 10 13 8 14 13 11 10 5 4 5 9 3 14 14 11 15 10 6 9 8 15 37 35 31 27 27 28
15 15 15 16 16 16 16 16 16 16 16 15 15 15 16 9 17 19 17 12 9 13 18 17 16 9 5 6 4 6 6 17 28 24 24 20 22 13 24 48 42 37 33 34 33
15 15 15 16 17 17 18 18 19 19 18 17 16 16 17 10 14 11 11 12 13 15 18 21 11 16 6 6 7 3 9 16 17 19 17 8 30 4 35 38 34 30 26 26 32
14 14 15 16 17 18 18 18 20 20 21 20 19 18 21 29 21 24 24 22 19 18 19 20 21 8 2 4 7 6 8 9 8 10 8 12 12 11 40 30 30 30 31 31 32
12 13 14 16 17 18 19 19 21 21 20 19 19 19 17 23 24 27 25 25 20 17 18 17 14 14 11 9 5 4 1 5 2 7 4 10 12 23 28 24 28 29 28 28 32
10 11 12 14 15 18 18 19 19 20 20 19 16 14 11 19 21 23 23 22 17 18 15 12 7 8 8 2 5 3 6 8 12 13 6 8 10 14 11 13 23 28 33 38 46
10 11 12 13 14 17 17 17 16 17 15 10 13 5 18 15 13 14 15 17 14 9 8 9 8 3 2 4 8 9 5 6 7 7 5 6 15 12 36 15 27 36 44 51 53
13 14 13 14 15 16 15 11 5 5 6 10 6 9 7 10 14 12 12 14 10 8 6 6 4 9 21 16 13 4 7 9 8 11 3 13 17 15 26 30 29 34 43 48 53
16 16 15 15 15 14 14 8 8 7 12 18 26 29 30 16 6 14 11 10 8 7 6 1 10 18 7 4 7 8 15 18 18 17 6 17 23 15 13 19 37 40 39 44 48
17 17 16 14 14 10 14 17 14 11 5 14 19 15 22 20 14 9 12 9 5 7 10 16 8 12 8 8 7 11 10 20 18 6 6 12 21 15 12 16 34 46 41 46 48
17 16 18 16 11 11 9 16 15 13 3 7 3 3 4 7 4 10 17 7 3 9 6 9 8 12 7 6 13 19 11 13 10 3 10 3 19 5 11 16 15 28 39 40 44
20 22 20 16 13 10 9 11 11 8 6 4 2 2 5 5 4 1 12 8 5 6 5 9 4 4 6 14 9 12 4 6 3 4 5 5 4 2 6 9 13 11 27 29 32
20 20 18 18 16 9 5 7 8 3 9 4 1 0 2 1 0 3 3 4 2 2 4 10 2 6 8 5 9 2 3 2 4 2 7 10 8 6 5 7 4 5 21 26 28
16 15 17 17 13 7 6 4 4 6 4 3 1 1 1 3 2 4 4 4 5 1 5 2 5 3 6 4 1 3 5 4 3 1 11 7 5 22 10 11 9 11 20 21 30
16 16 17 20 16 12 6 3 9 5 7 3 1 1 5 7 5 4 3 3 5 2 2 3 16 9 7 9 8 8 9 6 7 8 17 6 10 16 8 9 9 8 10 21 37
20 19 20 20 19 20 10 7 8 9 8 5 5 3 4 3 3 3 6 4 6 13 9 4 10 2 5 5 9 5 6 6 3 0 2 12 17 16 7 5 1 9 16 24 35
19 18 23 18 19 23 8 16 8 9 4 2 6 5 5 5 2 3 3 2 4 10 2 3 9 5 3 1 4 6 1 1 1 4 11 8 17 16 12 15 12 9 15 33 37
14 7 8 14 21 14 11 8 9 21 14 5 7 11 8 6 7 8 6 3 4 1 8 3 1 9 3 5 17 1 4 5 1 6 15 17 10 26 20 7 9 9 21 31 37
8 4 7 20 9 6 15 7 14 18 13 16 8 18 15 13 14 7 8 10 6 7 5 9 5 6 16 6 5 5 8 5 6 9 10 16 16 21 30 18 10 16 30 34 31
4 7 7 20 7 11 8 11 19 21 11 4 8 8 7 13 11 17 20 19 17 6 6 4 4 10 6 7 2 6 13 15 19 18 22 22 21 16 23 26 26 18 23 25 27
2 2 8 19 23 8 13 16 15 15 15 18 16 15 15 16 15 9 13 8 7 6 16 8 9 17 14 11 18 22 14 17 16 14 22 21 25 16 22 28 28 24 21 24 27
7 4 4 3 11 14 17 11 16 14 12 6 4 11 13 8 9 13 15 4 4 8 3 3 14 15 19 15 17 20 24 28 30 27 24 23 24 23 24 21 17 27 28 30 30
4 3 5 8 13 6 10 20 20 22 15 19 18 16 13 11 8 3 4 3 5 2 4 2 9 16 21 23 18 18 16 17 14 15 22 25 30 18 23 32 32 26 27 29 30
6 11 5 7 2 2 7 9 9 7 4 8 5 4 8 4 4 6 10 13 12 9 5 5 5 3 19 18 12 14 19 18 21 14 11 9 7 14 17 19 19 22 29 29 28

GFSSW_850_spd_015.txt.gz
Wind_Speed
8 8 9 10 9 10 10 10 10 10 10 10 11 12 13 13 14 16 16 10 7 11 9 7 8 6 5 5 5 5 3 2 5 6 5 3 2 2 3 10 9 12 20 23 23
9 9 10 11 11 11 11 12 12 12 13 12 12 13 14 16 17 20 6 4 6 7 10 9 9 8 5 5 4 4 3 8 6 6 5 4 6 11 4 11 14 18 24 26 25
10 11 12 13 13 14 14 14 14 14 15 15 15 16 17 17 18 2 1 5 4 7 10 10 8 8 5 5 7 6 6 6 7 16 12 7 6 7 4 7 27 22 21 18 22
12 14 14 15 16 16 16 17 17 16 16 16 16 16 18 15 6 1 5 11 11 9 12 11 9 5 4 5 7 3 14 11 5 8 5 5 7 5 13 33 34 36 33 33 31
14 14 15 16 17 17 17 18 18 18 18 18 17 17 18 9 18 21 19 15 10 9 13 14 13 8 5 5 3 4 5 13 20 17 22 21 26 11 27 43 39 35 32 29 26
13 13 14 15 16 17 18 19 20 20 19 19 18 17 18 12 14 10 9 9 8 10 14 15 9 12 4 5 6 2 8 16 14 19 18 9 26 4 25 30 30 29 33 32 28
11 12 13 14 15 16 18 20 21 21 20 19 18 17 21 31 20 19 21 20 17 15 16 16 17 9 4 3 5 5 7 9 7 11 8 8 9 11 30 23 29 32 24 25 29
7 8 10 11 13 15 17 19 20 20 19 18 17 16 16 21 22 22 23 27 22 15 15 14 13 12 9 6 2 3 1 4 4 6 3 10 12 17 30 19 18 25 40 41 38
5 6 8 11 12 14 15 17 18 17 17 14 13 11 10 15 14 15 20 20 15 14 12 7 9 5 4 3 4 2 5 7 9 11 4 7 9 10 17 21 30 38 48 50 48
6 7 9 11 12 14 15 16 14 12 9 6 7 4 12 11 9 8 9 10 8 8 7 7 5 3 3 3 7 8 5 5 6 6 7 7 15 15 34 36 38 40 40 47 42
8 10 11 11 13 16 16 14 7 4 4 8 13 14 20 11 11 10 7 9 8 7 5 3 4 8 15 14 2 3 5 6 8 8 4 22 19 15 24 27 35 41 38 30 39
12 12 13 14 12 14 13 8 8 9 12 19 25 27 31 27 9 12 9 8 8 6 7 3 7 15 2 4 7 7 10 14 8 10 4 12 20 20 21 24 31 37 34 29 32
15 13 11 11 13 11 10 11 14 15 5 11 15 14 12 15 9 14 12 7 5 6 8 9 5 5 7 5 8 5 6 10 10 6 6 7 8 4 7 10 25 29 24 25 21
15 14 12 12 10 6 7 11 12 16 2 6 3 2 2 4 2 5 12 4 2 8 6 6 4 6 4 6 8 9 10 11 6 4 4 5 9 5 8 10 2 14 16 10 10
15 15 14 11 7 6 7 7 10 8 6 3 1 1 2 2 1 3 6 4 3 4 4 7 5 4 4 8 7 10 1 2 2 3 3 3 4 6 3 6 7 4 4 5 8
17 15 13 12 8 5 5 4 8 2 7 4 1 0 0 1 0 3 2 3 1 2 2 7 2 4 7 4 6 3 3 5 4 2 5 10 8 1 4 4 1 11 13 10 11
10 9 8 4 2 1 4 1 2 4 2 3 3 2 1 3 2 3 3 3 4 1 4 1 4 3 3 1 2 2 4 4 4 1 8 3 3 5 5 5 5 6 18 12 19
10 11 9 7 5 5 5 1 8 6 7 2 2 1 3 4 2 2 1 4 6 3 2 3 17 8 6 7 7 7 8 5 6 6 12 2 9 7 8 4 15 11 7 14 35
15 18 20 15 14 11 7 7 5 6 6 1 6 6 3 2 4 3 6 5 5 10 8 5 10 1 5 4 7 4 6 5 2 3 2 8 12 14 5 5 10 21 28 26 26
17 15 19 14 12 16 5 14 6 5 3 0 4 5 7 3 2 3 4 3 4 7 1 3 7 7 3 2 4 7 3 1 1 3 9 6 5 13 6 9 14 15 20 27 29
13 5 6 12 15 15 8 7 6 18 12 4 3 6 9 8 7 6 5 3 5 4 8 3 5 7 3 6 8 1 4 4 3 4 5 7 8 4 8 12 8 6 13 22 25
8 2 6 14 9 5 11 5 7 11 12 4 2 5 11 11 12 11 14 14 4 2 3 6 5 7 13 7 3 3 7 8 5 7 5 6 8 14 13 11 12 13 17 20 22
9 3 10 21 6 9 5 5 9 5 9 4 6 5 1 5 9 8 6 5 9 4 3 2 4 5 5 3 3 3 3 6 5 2 11 11 5 11 10 13 15 13 15 17 22
6 1 4 15 14 2 3 10 10 7 9 14 7 7 7 11 11 9 8 5 3 3 4 4 4 13 15 13 4 7 6 4 4 7 11 9 8 11 5 12 10 9 10 12 19
5 4 4 3 5 10 14 6 2 3 5 4 2 4 3 5 4 5 4 4 4 4 3 5 10 9 12 13 4 8 10 16 16 16 11 15 20 22 1 3 8 8 12 13 14
5 3 4 2 5 1 8 5 12 11 6 15 11 11 6 11 9 14 6 5 8 3 3 2 4 1 4 11 14 17 17 18 17 17 14 17 21 7 4 2 7 12 11 15 19
7 6 2 2 2 3 4 3 2 1 1 8 6 4 4 1 3 5 6 10 7 4 2 3 3 8 20 7 4 7 14 14 13 18 12 16 3 1 2 4 7 12 9 12 20

GFSSW_850_spd_021.txt.gz
Wind_Speed
4 4 5 5 5 6 7 7 7 7 7 8 9 10 11 12 14 15 15 11 10 8 8 7 6 5 4 4 4 2 5 7 8 7 2 4 6 4 7 12 16 12 15 15 21
5 6 6 7 8 8 8 9 9 10 10 10 11 12 13 14 17 17 9 5 3 4 9 7 7 6 5 3 3 7 8 9 6 9 9 12 11 13 13 16 22 20 20 15 18
8 8 9 9 10 11 11 12 12 12 12 12 12 13 14 14 15 2 2 3 2 0 7 9 6 7 8 6 7 5 9 12 14 15 17 15 16 18 16 17 19 15 16 19 18
11 11 11 11 12 12 13 13 13 14 14 14 13 14 14 11 6 2 4 5 6 5 9 10 8 6 7 9 9 10 16 17 20 13 9 15 22 17 19 29 26 26 25 23 21
12 12 12 12 11 12 13 14 14 14 14 14 13 13 13 5 10 15 15 14 12 10 10 10 10 10 10 8 9 14 16 19 17 19 18 21 26 21 29 30 30 27 23 21 22
11 11 11 11 11 12 13 14 14 15 16 15 14 13 10 11 12 10 8 8 9 10 11 12 5 10 13 14 13 14 14 20 23 21 20 18 26 20 30 21 20 18 21 21 21
11 11 10 9 10 11 13 13 14 14 14 14 13 13 13 15 14 13 13 12 12 11 11 12 10 7 6 10 9 11 13 16 23 25 13 8 16 14 21 15 15 21 22 25 25
10 9 8 8 8 10 13 13 14 14 13 13 11 10 8 13 12 12 15 16 12 13 14 13 11 10 11 8 7 10 13 13 6 3 1 8 15 18 9 12 21 27 33 31 29
8 8 7 8 9 10 12 13 14 14 13 11 7 6 6 8 7 8 9 10 10 12 13 10 8 10 9 9 12 13 14 18 15 13 2 11 13 15 26 28 33 36 31 27 26
9 9 8 8 9 10 12 12 13 11 9 5 3 4 6 3 5 6 6 7 5 7 4 6 7 8 9 11 13 17 19 20 15 17 14 17 22 20 28 27 32 33 29 22 16
10 10 10 9 9 11 11 10 7 5 4 6 8 11 13 16 16 11 7 7 7 8 6 9 8 10 15 16 20 20 21 23 21 20 22 21 21 20 26 32 30 27 21 12 4
13 13 10 8 10 10 8 2 4 5 10 16 21 23 22 16 5 6 6 8 6 9 6 4 12 15 15 13 13 18 21 21 20 17 13 17 21 25 22 22 17 15 13 3 12
15 13 11 9 10 9 4 4 6 8 7 9 11 7 5 9 9 7 9 5 8 11 12 17 15 5 9 12 18 18 19 22 22 18 17 13 15 12 10 24 13 8 12 18 15
16 13 11 8 8 2 3 5 6 10 5 4 3 1 0 2 4 4 10 5 5 8 11 11 8 6 11 15 14 15 12 7 12 9 10 7 11 11 17 12 9 17 18 16 16
14 12 11 8 6 4 6 6 5 4 7 2 3 2 3 2 1 1 5 3 9 6 5 0 5 4 8 9 4 8 2 7 8 11 16 14 9 5 15 8 13 13 13 14 15
14 11 10 11 10 8 5 2 2 4 7 1 2 1 1 1 1 2 1 2 2 4 8 17 2 4 10 3 7 6 7 14 13 8 8 6 6 4 4 5 12 11 12 13 13
12 10 10 9 6 6 5 2 4 5 2 4 1 1 1 1 3 3 3 5 3 5 8 5 7 6 4 7 5 6 8 7 8 8 13 5 6 9 6 3 5 10 9 11 12
10 10 10 10 9 8 9 3 8 2 9 3 2 1 3 3 3 4 4 10 8 6 10 13 17 7 10 6 12 10 9 7 10 14 16 8 12 10 5 14 14 12 12 10 9
12 11 12 11 10 8 5 7 6 10 11 12 8 10 15 7 5 5 10 13 10 10 9 10 9 5 4 4 2 5 7 8 6 11 8 14 23 18 12 12 10 11 10 8 7
14 9 13 13 12 11 6 9 10 8 2 5 13 10 13 8 8 7 6 3 1 1 1 1 10 3 1 2 8 6 5 7 4 5 15 12 18 13 7 12 10 8 8 7 10
10 5 8 17 15 9 7 8 10 9 2 6 11 16 13 12 9 6 5 3 5 2 2 4 3 9 6 7 12 10 10 11 12 11 13 16 13 8 9 8 7 7 7 9 9
10 3 10 20 8 7 10 5 4 5 6 7 6 11 13 10 9 12 15 14 3 9 8 10 5 10 23 21 19 14 15 16 12 9 11 13 12 10 8 7 6 4 7 6 5
7 5 14 27 7 10 8 8 12 7 11 7 8 9 7 11 7 11 12 5 4 4 3 3 2 5 8 10 2 4 6 12 14 12 17 14 12 7 4 3 2 5 8 5 5
8 4 7 18 15 10 16 14 14 8 14 18 10 9 10 11 11 7 7 2 2 1 3 2 5 11 13 17 19 19 18 15 11 9 17 16 14 15 14 9 8 13 8 7 5
10 5 7 7 12 14 12 3 13 12 8 7 8 17 15 11 12 18 17 11 5 4 4 4 10 15 18 21 19 18 19 24 24 23 23 24 23 24 23 17 9 3 2 7 9
6 4 3 3 14 18 16 14 16 10 7 10 13 7 9 9 10 5 7 7 12 10 11 7 10 11 16 19 20 21 24 24 22 22 24 25 28 23 11 3 3 3 6 9 12
10 8 5 6 7 8 13 17 10 11 6 8 8 6 7 9 6 1 4 8 10 7 9 11 8 8 18 16 18 16 24 23 26 26 25 22 12 7 5 4 5 7 9 12 13

GFSSW_850_spd_027.txt.gz
Wind_Speed
3 2 2 2 2 3 3 4 4 5 6 7 8 9 10 11 12 14 13 5 5 6 5 5 4 2 2 1 2 1 4 2 3 5 3 3 4 1 5 9 12 8 15 19 21
5 5 4 4 5 5 6 6 7 7 8 8 9 10 11 12 14 13 4 3 1 3 4 3 2 1 1 2 2 3 3 5 2 1 3 7 4 8 7 16 24 24 18 11 18
7 7 7 7 7 7 8 8 8 9 9 10 10 11 11 11 12 1 2 5 6 6 4 5 1 5 2 4 6 4 5 3 9 13 10 6 13 9 9 5 18 26 26 24 24
9 9 9 9 9 9 9 9 9 10 10 10 11 11 10 8 3 1 3 3 4 4 4 5 6 4 3 3 10 3 11 10 7 17 11 4 9 11 13 26 27 25 25 26 26
12 12 10 10 10 9 9 9 10 10 11 11 11 11 9 5 8 9 8 9 10 9 7 6 7 6 2 3 7 4 3 7 13 17 20 18 12 11 26 25 21 20 19 20 14
14 12 11 10 10 10 10 10 10 10 10 10 10 10 8 6 10 10 10 9 8 9 7 10 4 3 5 3 1 4 6 12 12 23 23 12 12 2 20 20 17 13 13 13 18
14 13 11 11 10 10 10 10 10 10 10 10 9 9 10 13 12 9 8 8 9 8 9 8 11 8 3 4 3 5 5 7 17 11 7 7 3 7 18 16 23 23 25 31 20
14 14 13 10 9 9 9 10 10 10 9 9 9 8 6 9 8 9 10 10 9 10 10 10 12 10 4 4 5 4 1 3 5 3 2 2 7 10 15 17 28 33 29 19 4
16 14 12 9 9 9 10 10 9 10 10 9 7 6 5 4 5 7 7 6 4 8 8 9 7 3 1 4 4 2 3 5 7 4 3 3 6 12 18 22 30 29 20 6 5
17 15 11 9 9 8 8 10 9 10 9 6 7 4 5 4 4 4 5 5 3 4 5 4 3 2 3 3 4 5 4 4 5 4 2 4 9 9 20 27 27 21 9 11 14
17 15 10 9 8 7 6 5 4 2 6 7 5 7 10 8 6 7 7 8 6 4 4 5 4 6 11 10 6 3 3 4 5 9 4 9 6 10 21 28 20 7 20 19 19
18 16 11 9 7 6 4 3 4 3 8 14 17 20 20 18 5 5 9 9 7 5 6 4 6 13 6 5 6 4 4 6 5 5 2 7 9 13 17 4 4 23 22 18 17
19 16 11 8 7 7 6 5 3 3 4 8 10 7 8 8 5 10 14 7 5 5 8 8 8 8 7 5 4 3 4 5 8 3 4 4 6 8 3 21 23 22 21 19 20
19 16 13 9 6 7 7 5 3 3 2 4 3 2 4 6 3 8 14 5 4 10 6 6 6 7 7 6 6 5 3 4 3 2 3 3 5 4 2 7 9 15 20 20 20
21 17 15 13 8 12 5 5 4 1 4 2 4 5 6 5 7 2 8 6 3 2 4 6 6 3 3 5 7 7 2 2 3 4 2 5 0 7 9 5 4 12 20 20 18
23 19 19 18 17 14 10 7 5 2 7 3 4 4 4 4 3 5 2 3 2 0 2 5 1 3 6 2 2 3 2 4 2 3 1 5 5 5 4 8 6 13 20 19 16
26 25 29 25 23 19 13 10 2 5 2 4 4 5 4 5 4 5 5 4 5 4 3 2 5 2 3 2 4 4 4 3 4 1 5 2 2 7 5 5 14 16 21 17 14
33 30 28 24 20 18 16 3 7 7 5 3 4 5 5 7 5 7 5 3 6 1 2 4 4 7 3 5 5 5 5 4 5 3 4 7 5 4 9 25 28 27 20 14 11
30 27 24 22 22 21 15 8 7 5 4 7 3 4 5 5 5 5 7 6 3 7 8 5 5 2 2 3 7 4 4 3 2 1 3 4 5 8 9 12 18 20 18 14 10
22 19 19 22 19 17 5 4 4 6 5 4 7 7 7 6 6 6 7 4 4 1 1 2 3 3 1 4 2 2 1 2 2 1 4 5 4 4 5 10 8 9 13 11 7
20 12 16 22 23 11 3 5 6 2 6 3 4 4 4 4 7 4 3 1 4 3 6 3 4 4 3 4 5 1 1 2 2 4 4 2 5 4 6 11 10 13 14 12 8
22 3 14 23 5 5 5 6 4 3 5 3 2 2 4 3 3 5 7 6 10 10 7 2 4 4 8 5 3 6 6 5 3 5 3 3 11 3 8 15 17 17 15 11 10
19 7 18 23 4 5 4 6 6 4 5 5 6 6 5 7 3 6 5 1 14 5 7 5 1 2 8 4 2 1 1 4 3 2 6 5 5 2 7 10 13 15 16 13 13
12 4 5 17 11 5 6 7 7 15 6 9 5 7 5 6 5 4 5 4 6 7 9 6 3 6 8 4 2 3 7 1 4 2 3 8 7 16 13 6 12 18 17 13 15
6 5 10 5 10 7 3 3 13 8 9 15 4 8 7 6 5 6 5 4 4 14 7 6 6 4 6 2 3 4 10 11 6 10 8 20 17 19 17 9 7 4 4 11 13
8 5 9 7 13 15 13 7 7 7 7 5 5 8 7 7 7 5 6 2 3 2 4 1 2 2 4 2 4 8 18 12 14 16 15 19 22 18 5 3 6 8 8 8 8
14 10 6 6 5 10 11 17 9 8 2 5 13 5 3 3 9 11 8 8 4 6 3 5 5 3 6 2 4 7 15 16 12 11 7 9 10 1 4 5 7 6 5 6 8

GFSSW_850_spd_033.txt.gz
Wind_Speed
6 6 5 5 4 4 4 4 5 6 6 7 8 8 9 10 11 12 12 5 4 5 4 4 3 1 0 2 2 2 4 1 3 2 2 6 6 1 6 4 4 6 5 11 11
9 8 7 7 6 6 6 6 6 7 7 8 9 10 11 11 13 12 5 4 5 4 4 4 3 1 1 1 1 4 4 7 4 2 2 6 4 9 4 12 5 9 12 11 11
11 10 9 8 8 8 8 8 8 8 8 9 9 10 10 11 12 1 1 3 5 7 8 7 3 1 1 1 2 3 4 5 4 6 3 4 6 2 4 3 15 16 20 14 9
13 11 11 10 9 9 9 9 9 9 9 9 10 10 10 8 3 2 4 3 4 6 7 6 3 2 1 1 2 0 5 5 2 4 3 3 5 7 9 16 17 17 12 10 8
14 13 12 12 11 11 11 10 10 10 10 11 10 11 10 6 8 8 6 6 7 8 7 6 6 5 3 3 1 3 4 6 10 13 13 10 11 7 21 15 11 5 8 9 10
16 15 14 14 13 12 12 12 12 12 11 11 10 10 9 6 8 9 8 10 10 10 10 7 5 6 3 2 3 2 5 11 12 19 12 5 4 2 4 3 6 7 9 11 10
18 17 17 15 14 13 13 13 13 12 11 11 10 10 12 15 10 8 9 9 9 9 10 9 8 6 4 0 1 2 5 8 10 7 5 5 0 7 6 9 9 7 8 7 9
21 20 18 16 15 15 15 14 12 12 12 11 10 9 9 10 11 12 12 10 9 9 8 6 7 4 2 1 4 3 3 4 4 2 1 4 7 6 8 10 6 3 2 3 5
22 21 19 17 16 16 15 13 12 12 13 12 10 7 7 7 10 12 9 8 9 9 8 6 5 3 3 4 4 5 3 4 8 3 2 3 5 9 16 18 4 7 5 6 6
24 22 19 18 16 16 13 12 12 13 13 11 12 5 12 6 7 8 9 8 6 9 7 5 4 3 3 4 5 6 4 5 5 0 3 3 8 13 23 6 7 11 11 11 12
24 22 19 17 16 15 12 10 9 6 15 10 4 5 2 9 9 9 11 11 9 6 5 3 4 7 13 11 3 2 4 4 3 5 1 6 5 12 14 11 16 15 14 15 17
24 22 19 17 17 16 13 8 8 3 8 14 22 19 13 10 7 13 14 10 7 5 6 4 7 13 4 5 5 2 2 5 6 4 3 6 10 3 10 7 12 16 15 16 17
24 22 19 18 17 18 16 14 10 7 5 8 17 18 19 19 10 15 18 10 5 6 8 8 6 5 7 4 5 4 5 5 8 3 1 3 6 2 6 15 16 15 15 15 16
24 22 20 19 17 20 20 14 9 4 2 6 6 6 10 9 5 13 20 8 4 11 6 5 5 4 4 5 7 4 8 7 3 3 4 1 5 6 5 5 7 13 14 15 16
26 25 24 25 12 18 13 13 10 5 5 3 4 6 10 9 10 5 14 5 6 6 7 7 5 4 5 8 6 7 4 4 2 2 3 4 1 6 6 3 5 9 13 15 16
29 28 26 25 25 17 13 16 12 3 10 5 6 6 5 4 4 6 5 4 3 3 1 6 1 4 6 3 6 5 4 6 4 3 1 7 7 4 5 3 6 12 15 15 15
33 32 32 32 33 21 19 19 2 7 0 6 5 6 5 6 4 5 6 6 6 5 6 1 4 2 3 5 3 4 5 2 4 2 5 3 1 7 4 5 11 16 20 18 16
36 34 35 37 35 29 29 4 9 7 8 4 6 5 8 8 5 6 7 5 6 3 4 7 3 8 4 6 6 6 7 5 7 3 4 2 6 5 1 2 19 27 24 20 17
39 39 41 44 38 37 27 10 11 8 6 9 4 5 5 6 6 5 8 6 9 12 7 6 4 2 3 2 5 5 5 3 5 2 3 4 4 2 3 4 11 19 20 22 20
42 46 45 48 47 46 16 21 10 6 8 5 12 8 11 8 8 8 10 5 5 9 0 5 2 1 1 3 4 4 6 4 2 2 5 4 5 5 7 10 7 10 21 20 19
38 17 23 50 43 24 12 10 6 8 8 8 10 7 7 8 9 7 7 1 5 6 7 5 4 2 3 5 8 2 2 3 3 5 6 2 6 5 11 13 14 19 22 20 21
22 4 20 33 14 4 13 7 8 8 6 3 4 4 9 8 7 7 11 7 14 14 9 5 4 4 8 1 1 3 7 7 5 6 3 1 12 5 6 15 22 23 19 19 19
10 4 23 29 8 3 3 3 2 4 5 5 3 4 2 7 5 7 6 1 14 9 10 8 1 2 6 4 2 4 4 4 4 4 7 6 6 3 5 11 21 21 14 11 17
12 2 3 9 3 6 7 5 5 6 2 4 5 3 4 4 3 7 6 2 2 1 1 9 5 8 13 6 5 5 5 5 5 3 4 12 5 2 4 7 13 15 9 14 19
14 6 10 5 6 6 11 8 12 8 7 12 4 10 10 6 5 6 4 3 4 4 3 4 5 2 1 4 4 3 5 9 8 7 11 8 12 6 10 9 17 18 17 17 19
7 6 7 6 21 15 11 12 15 14 9 5 9 14 11 7 7 8 8 4 5 2 5 1 2 3 2 2 1 4 7 9 10 7 8 9 18 7 7 13 13 12 13 14 14
1 6 6 5 10 13 13 18 17 16 8 6 15 6 15 15 11 4 8 11 8 9 7 6 6 4 7 2 3 8 12 15 10 6 8 11 17 3 6 9 12 13 13 12 11